Cosmos 1500 Rocket - Orbit

View from above orbital plane
View from above orbital plane
View from above satellite
View from above satellite

Ground track
Ground track

The orbit data is extracted from the following two-line orbital elements,

1 14373U 83099B   13144.21714647  .00000395  00000-0  45796-4 0  3594
2 14373 082.5407 191.4778 0022172 086.2769 335.6704 14.82730642600747
Epoch (UTC): 24 May 2013 05:12:41
Eccentricity: 0.0022172
inclination: 82.5407°
perigee height: 605 km
apogee height: 636 km
right ascension of ascending node: 191.4778°
argument of perigee: 86.2769°
revolutions per day: 14.82730642
mean anomaly at epoch: 335.6704°
orbit number at epoch: 60074

The dashed part of the orbit path shows where the satellite is in the earth's shadow,  

Developed and maintained by Chris Peat, Heavens-Above GmbH. Please read the updated FAQ before sending e-mail. Imprint. DLR